FW0839 Weather Reports


Display with metric or nautical units.
time (UTC)temp
F
wind
direction
speed
MPH
gust
MPH
rain 1hr
in
rain 24hr
in
rain mn
in
humidity
%
barometer
mb
20210727184629 83 250 0.0 4.0 0.00 0.04 0.01 78 1020.2
20210727183141 79 223 0.0 5.0 0.00 0.04 0.01 86 1020.2
20210727181624 81 103 1.0 3.0 0.00 0.04 0.01 79 1020.3
20210727180139 84 250 2.0 4.0 0.00 0.04 0.01 76 1020.4
20210727174640 83 202 2.0 5.0 0.00 0.04 0.01 78 1020.6
20210727173257 82 221 2.0 6.0 0.00 0.04 0.01 73 1020.7
20210727171613 82 247 1.0 7.0 0.00 0.04 0.01 78 1020.8
20210727170313 81 174 0.0 3.0 0.00 0.20 0.01 77 1021.0
20210727164617 81 236 2.0 5.0 0.00 0.20 0.01 83 1021.2
20210727163132 81 259 3.0 5.0 0.00 0.20 0.01 83 1021.3
20210727161601 80 186 1.0 5.0 0.00 0.20 0.01 80 1021.2
20210727160130 79 250 0.0 3.0 0.00 0.20 0.01 86 1021.4
20210727154617 78 125 1.0 4.0 0.00 0.20 0.01 87 1021.4
20210727153046 77 196 0.0 3.0 0.00 0.20 0.01 86 1021.4
20210727151558 77 221 1.0 6.0 0.00 0.20 0.01 90 1021.3
20210727150051 76 224 2.0 5.0 0.00 0.20 0.01 90 1021.3
20210727144558 75 222 1.0 4.0 0.00 0.20 0.01 90 1021.3
20210727143023 73 208 1.0 2.0 0.00 0.20 0.01 92 1021.3
20210727141513 72 190 1.0 3.0 0.00 0.20 0.01 95 1021.1
20210727140039 70 148 1.0 3.0 0.00 0.20 0.01 99 1021.2
20210727134505 69 232 1.0 3.0 0.00 0.20 0.01 100 1021.0
20210727133001 67 198 0.0 2.0 0.00 0.20 0.01 100 1021.1
20210727131612 66 211 0.0 2.0 0.00 0.20 0.01 100 1020.9
20210727130237 65 111 0.0 0.0 0.00 0.20 0.01 100 1021.0
20210727124845 64 111 0.0 1.0 0.00 0.20 0.01 100 1020.9
20210727123149 64 111 0.0 0.0 0.00 0.20 0.01 100 1020.6
20210727121731 63 111 0.0 0.0 0.00 0.20 0.01 100 1020.8
20210727120232 63 111 0.0 0.0 0.00 0.20 0.01 100 1020.6
20210727114943 63 111 0.0 0.0 0.00 0.20 0.01 100 1020.8
20210727113246 63 105 0.0 0.0 0.00 0.20 0.01 100 1020.9
20210727111637 63 346 0.0 0.0 0.00 0.20 0.01 100 1021.1
20210727110220 62 346 0.0 0.0 0.00 0.20 0.01 100 1021.1
20210727104642 63 111 0.0 0.0 0.00 0.20 0.01 100 1021.0
20210727103135 63 111 0.0 0.0 0.00 0.20 0.01 100 1020.9
20210727101619 63 111 0.0 0.0 0.00 0.20 0.01 100 1020.9
20210727100127 63 111 0.0 0.0 0.00 0.20 0.01 100 1020.7
20210727094728 63 111 0.0 0.0 0.00 0.20 0.01 100 1020.7
20210727093240 63 111 0.0 0.0 0.00 0.20 0.01 100 1020.5
20210727091649 62 111 0.0 0.0 0.00 0.20 0.01 100 1020.5
20210727090100 62 111 0.0 0.0 0.00 0.20 0.01 100 1020.3
20210727084622 63 111 0.0 0.0 0.01 0.20 0.01 100 1020.1
20210727083110 63 111 0.0 0.0 0.01 0.20 0.01 100 1020.0
20210727081629 63 111 0.0 0.0 0.01 0.20 0.01 100 1020.0
20210727080109 63 111 0.0 0.0 0.01 0.20 0.01 100 1019.9
20210727074602 64 111 0.0 0.0 0.00 0.19 0.00 100 1020.1
20210727073114 64 111 0.0 0.0 0.00 0.19 0.00 100 1020.3
20210727071540 64 111 0.0 0.0 0.00 0.19 0.00 100 1020.3
20210727070219 65 111 0.0 0.0 0.00 0.19 0.00 100 1020.4
20210727064612 65 111 0.0 0.0 0.00 0.19 0.00 100 1020.5
20210727063116 65 111 0.0 0.0 0.00 0.19 0.00 100 1020.4
20210727061558 66 111 0.0 0.0 0.00 0.19 0.00 100 1020.6
20210727060050 65 101 0.0 0.0 0.00 0.19 0.00 100 1020.7
20210727054529 65 105 0.0 0.0 0.00 0.19 0.00 100 1020.5
20210727053039 66 105 0.0 0.0 0.00 0.19 0.00 100 1020.6
20210727051558 66 105 0.0 0.0 0.00 0.19 0.00 100 1020.5
20210727050053 66 105 0.0 0.0 0.00 0.19 0.00 100 1020.3
20210727044543 66 105 0.0 0.0 0.00 0.19 0.00 100 1020.2
20210727043043 67 53 0.0 0.0 0.00 0.19 0.00 100 1020.2
20210727041551 67 53 0.0 0.0 0.00 0.19 0.00 100 1020.3
20210727040037 67 53 0.0 0.0 0.00 0.19 0.19 100 1020.4
20210727034530 67 53 0.0 0.0 0.00 0.19 0.19 100 1020.2
20210727033042 67 53 0.0 0.0 0.00 0.19 0.19 100 1020.3
20210727031617 68 53 0.0 0.0 0.00 0.19 0.19 100 1020.4
20210727030027 68 53 0.0 0.0 0.00 0.19 0.19 100 1020.5
20210727024516 68 38 0.0 0.0 0.00 0.19 0.19 100 1020.6
20210727023018 69 281 0.0 0.0 0.00 0.19 0.19 100 1020.7
20210727021610 69 281 0.0 0.0 0.00 0.19 0.19 100 1020.7
20210727020028 69 279 0.0 0.0 0.00 0.19 0.19 100 1020.8
20210727014529 69 279 0.0 0.0 0.00 0.19 0.19 100 1020.6
20210727013016 69 279 0.0 0.0 0.00 0.19 0.19 100 1020.9
20210727011529 69 279 0.0 0.0 0.00 0.19 0.19 99 1020.8
20210727010014 69 279 0.0 0.0 0.00 0.19 0.19 99 1020.9
20210727004510 70 279 0.0 0.0 0.00 0.19 0.19 99 1020.7
20210727003018 70 279 0.0 1.0 0.00 0.19 0.19 99 1020.6
20210727001519 70 279 0.0 0.0 0.00 0.19 0.19 99 1020.4
20210727000027 71 279 0.0 2.0 0.00 0.19 0.19 99 1020.2
20210726234510 71 199 0.0 9.0 0.00 0.19 0.19 98 1020.2
20210726233008 71 182 0.0 0.0 0.00 0.19 0.19 99 1019.9
20210726231507 71 208 0.0 0.0 0.00 0.19 0.19 99 1020.2
20210726230016 71 220 0.0 0.0 0.01 0.19 0.19 99 1020.0
20210726224506 71 220 0.0 0.0 0.02 0.19 0.19 98 1019.5
20210726223005 72 220 0.0 0.0 0.02 0.19 0.19 98 1019.7
20210726221504 72 220 0.0 2.0 0.03 0.19 0.19 98 1019.8
20210726220007 72 220 1.0 4.0 0.02 0.18 0.18 97 1019.5
20210726214502 73 198 1.0 4.0 0.01 0.17 0.17 97 1019.6
20210726213001 73 142 1.0 8.0 0.00 0.16 0.16 95 1019.9
20210726211504 74 226 3.0 6.0 0.00 0.16 0.16 95 1019.6
20210726210150 75 146 2.0 5.0 0.00 0.16 0.16 93 1019.6
20210726204916 77 213 0.0 2.0 0.00 0.16 0.16 92 1019.2
20210726203132 79 207 1.0 3.0 0.00 0.16 0.16 85 1019.2
20210726201805 81 162 2.0 7.0 0.00 0.16 0.16 84 1019.0
20210726200217 82 142 1.0 4.0 0.00 0.16 0.16 80 1019.1
20210726194649 82 194 0.0 7.0 0.00 0.16 0.16 86 1018.8
20210726193159 81 242 3.0 7.0 0.00 0.16 0.16 90 1019.1
20210726191723 80 277 1.0 4.0 0.00 0.16 0.16 88 1019.2
20210726190230 78 296 0.0 1.0 0.00 0.16 0.16 91 1019.4